When you browse on this site, cookies collect data to enhance your experience and personalize the content and advertising you see.
Visit our Privacy Policy to learn more. By continuing to use the site, you agree to this use of cookies and data.
  • In Austria
  • List of Countries
  • For 7 days
  • Water Temperature
  • Satellite Maps
  • Weather Map
  • News
  • Weather Widgets
  • user-avatar
    Login

    Hourly Weather Sylhet

    Today, 22 April, Monday

    Time Temperature Precipitation Wind Pressure Humidity
    00:00 +28°C° 0 mm 2 mps 755 mmHg 46%
    01:00 +28°C° 0 mm 1 mps 754 mmHg 47%
    02:00 +27°C° 0 mm 1 mps 754 mmHg 48%
    03:00 +27°C° 0 mm 1 mps 754 mmHg 49%
    04:00 +27°C° 0 mm 1 mps 754 mmHg 50%
    05:00 +27°C° 0 mm 1 mps 754 mmHg 52%
    06:00 +27°C° 0 mm 1 mps 754 mmHg 53%
    07:00 +28°C° 0.5 mm 2 mps 755 mmHg 51%
    08:00 +29°C° 0.5 mm 2 mps 755 mmHg 49%
    09:00 +31°C° 0.5 mm 3 mps 755 mmHg 47%
    10:00 +34°C° 0 mm 3 mps 755 mmHg 41%
    11:00 +36°C° 0 mm 2 mps 755 mmHg 36%
    12:00 +38°C° 0 mm 2 mps 754 mmHg 30%
    13:00 +39°C° 0 mm 2 mps 754 mmHg 29%
    14:00 +39°C° 0 mm 1 mps 753 mmHg 27%
    15:00 +37°C° 0 mm 0 mps 752 mmHg 25%
    16:00 +39°C° 0 mm 1 mps 752 mmHg 29%
    17:00 +36°C° 0 mm 1 mps 752 mmHg 33%
    18:00 +35°C° 0 mm 1 mps 752 mmHg 36%
    19:00 +33°C° 0 mm 1 mps 753 mmHg 38%
    20:00 +32°C° 0 mm 2 mps 753 mmHg 39%
    21:00 +31°C° 0 mm 2 mps 754 mmHg 40%
    22:00 +30°C° 0.2 mm 2 mps 754 mmHg 42%
    23:00 +29°C° 0.2 mm 2 mps 755 mmHg 45%

    Tomorrow, 23 April, Tuesday

    Time Temperature Precipitation Wind Pressure Humidity
    00:00 +28°C° 0.2 mm 2 mps 755 mmHg 48%
    01:00 +28°C° 0.1 mm 2 mps 755 mmHg 49%
    02:00 +27°C° 0.1 mm 2 mps 754 mmHg 50%
    03:00 +27°C° 0.1 mm 2 mps 754 mmHg 52%
    04:00 +26°C° 0.1 mm 2 mps 754 mmHg 54%
    05:00 +26°C° 0.1 mm 2 mps 755 mmHg 57%
    06:00 +26°C° 0.1 mm 2 mps 755 mmHg 59%
    07:00 +28°C° 0 mm 2 mps 755 mmHg 53%
    08:00 +31°C° 0 mm 3 mps 756 mmHg 47%
    09:00 +35°C° 0 mm 3 mps 756 mmHg 40%
    10:00 +36°C° 0 mm 2 mps 756 mmHg 36%
    11:00 +38°C° 0 mm 2 mps 756 mmHg 31%
    12:00 +40°C° 0 mm 1 mps 755 mmHg 27%
    13:00 +40°C° 0 mm 1 mps 755 mmHg 26%
    14:00 +40°C° 0 mm 2 mps 754 mmHg 25%
    15:00 +41°C° 0 mm 2 mps 753 mmHg 23%
    16:00 +39°C° 0 mm 2 mps 753 mmHg 27%
    17:00 +38°C° 0 mm 2 mps 753 mmHg 31%
    18:00 +36°C° 0 mm 2 mps 753 mmHg 35%
    19:00 +35°C° 0 mm 2 mps 754 mmHg 37%
    20:00 +32°C° 0 mm 2 mps 754 mmHg 39%
    21:00 +31°C° 0 mm 2 mps 755 mmHg 41%
    22:00 +30°C° 0 mm 2 mps 755 mmHg 43%
    23:00 +30°C° 0 mm 1 mps 756 mmHg 46%

    Day after tomorrow, 24 April, Wednesday

    Time Temperature Precipitation Wind Pressure Humidity
    00:00 +29°C° 0 mm 1 mps 756 mmHg 49%
    01:00 +29°C° 0 mm 1 mps 756 mmHg 49%
    02:00 +28°C° 0 mm 1 mps 755 mmHg 50%
    03:00 +26°C° 0 mm 0 mps 755 mmHg 51%
    04:00 +26°C° 0 mm 0 mps 755 mmHg 52%
    05:00 +27°C° 0 mm 1 mps 756 mmHg 54%
    06:00 +27°C° 0 mm 1 mps 756 mmHg 55%
    07:00 +29°C° 0 mm 1 mps 756 mmHg 50%
    08:00 +32°C° 0 mm 1 mps 757 mmHg 44%
    09:00 +35°C° 0 mm 2 mps 757 mmHg 38%
    10:00 +36°C° 0 mm 1 mps 757 mmHg 35%
    11:00 +39°C° 0 mm 1 mps 757 mmHg 31%
    12:00 +41°C° 0 mm 1 mps 756 mmHg 27%
    13:00 +41°C° 0 mm 1 mps 755 mmHg 27%
    14:00 +41°C° 0 mm 2 mps 754 mmHg 26%
    15:00 +42°C° 0 mm 3 mps 753 mmHg 26%
    16:00 +40°C° 0 mm 2 mps 753 mmHg 30%
    17:00 +38°C° 0 mm 2 mps 753 mmHg 33%
    18:00 +36°C° 0 mm 1 mps 753 mmHg 37%
    19:00 +35°C° 0 mm 1 mps 754 mmHg 38%
    20:00 +34°C° 0 mm 1 mps 754 mmHg 40%
    21:00 +32°C° 0 mm 1 mps 755 mmHg 41%
    22:00 +32°C° 0 mm 1 mps 755 mmHg 43%
    23:00 +31°C° 0 mm 2 mps 755 mmHg 45%

    25 April, Thursday

    Time Temperature Precipitation Wind Pressure Humidity
    00:00 +31°C° 0 mm 2 mps 755 mmHg 46%
    01:00 +30°C° 0 mm 2 mps 755 mmHg 48%
    02:00 +29°C° 0 mm 2 mps 755 mmHg 49%
    03:00 +29°C° 0 mm 1 mps 754 mmHg 51%
    04:00 +29°C° 0 mm 1 mps 755 mmHg 53%
    05:00 +28°C° 0 mm 1 mps 755 mmHg 55%
    06:00 +28°C° 0 mm 1 mps 755 mmHg 56%
    07:00 +31°C° 0 mm 1 mps 756 mmHg 51%
    08:00 +33°C° 0 mm 1 mps 756 mmHg 45%
    09:00 +35°C° 0 mm 1 mps 756 mmHg 39%
    10:00 +37°C° 0 mm 1 mps 756 mmHg 35%
    11:00 +40°C° 0 mm 1 mps 755 mmHg 31%
    12:00 +42°C° 0 mm 1 mps 755 mmHg 27%
    13:00 +42°C° 0 mm 1 mps 754 mmHg 26%
    14:00 +42°C° 0 mm 2 mps 753 mmHg 26%
    15:00 +43°C° 0 mm 3 mps 753 mmHg 25%
    16:00 +41°C° 0 mm 2 mps 753 mmHg 29%
    17:00 +39°C° 0 mm 2 mps 752 mmHg 33%
    18:00 +38°C° 0 mm 2 mps 752 mmHg 37%
    19:00 +36°C° 0 mm 1 mps 753 mmHg 38%
    20:00 +35°C° 0 mm 1 mps 754 mmHg 40%
    21:00 +34°C° 0 mm 1 mps 754 mmHg 41%
    22:00 +33°C° 0 mm 1 mps 754 mmHg 42%
    23:00 +32°C° 0 mm 1 mps 754 mmHg 43%

    26 April, Friday

    Time Temperature Precipitation Wind Pressure Humidity
    00:00 +32°C° 0 mm 2 mps 754 mmHg 43%
    01:00 +31°C° 0 mm 2 mps 754 mmHg 45%
    02:00 +31°C° 0 mm 2 mps 753 mmHg 47%
    03:00 +30°C° 0 mm 2 mps 753 mmHg 49%
    04:00 +30°C° 0 mm 1 mps 753 mmHg 51%
    05:00 +29°C° 0 mm 1 mps 754 mmHg 54%
    06:00 +29°C° 0 mm 1 mps 754 mmHg 57%
    07:00 +31°C° 0.1 mm 1 mps 755 mmHg 51%
    08:00 +34°C° 0.1 mm 1 mps 755 mmHg 45%
    09:00 +36°C° 0.1 mm 1 mps 756 mmHg 39%
    10:00 +39°C° 0 mm 1 mps 755 mmHg 35%
    11:00 +40°C° 0 mm 1 mps 755 mmHg 31%
    12:00 +42°C° 0 mm 2 mps 754 mmHg 27%
    13:00 +42°C° 0 mm 2 mps 753 mmHg 25%
    14:00 +42°C° 0 mm 2 mps 752 mmHg 24%
    15:00 +43°C° 0 mm 2 mps 752 mmHg 23%
    16:00 +41°C° 0 mm 2 mps 751 mmHg 26%
    17:00 +40°C° 0 mm 1 mps 751 mmHg 29%
    18:00 +39°C° 0 mm 1 mps 751 mmHg 32%
    19:00 +37°C° 0 mm 1 mps 752 mmHg 34%
    20:00 +36°C° 0 mm 1 mps 753 mmHg 35%
    21:00 +34°C° 0 mm 1 mps 753 mmHg 36%
    22:00 +34°C° 0 mm 1 mps 753 mmHg 38%
    23:00 +33°C° 0 mm 1 mps 753 mmHg 40%

    27 April, Saturday

    Time Temperature Precipitation Wind Pressure Humidity
    00:00 +32°C° 0 mm 2 mps 753 mmHg 43%
    01:00 +31°C° 0 mm 2 mps 753 mmHg 47%
    02:00 +31°C° 0 mm 2 mps 753 mmHg 51%
    03:00 +30°C° 0 mm 2 mps 752 mmHg 55%
    04:00 +30°C° 0 mm 2 mps 753 mmHg 60%
    05:00 +29°C° 0 mm 2 mps 753 mmHg 65%
    06:00 +29°C° 0 mm 1 mps 754 mmHg 70%
    07:00 +31°C° 0 mm 2 mps 754 mmHg 64%
    08:00 +34°C° 0 mm 2 mps 754 mmHg 58%
    09:00 +36°C° 0 mm 2 mps 755 mmHg 52%
    10:00 +37°C° 0 mm 2 mps 754 mmHg 46%
    11:00 +39°C° 0 mm 2 mps 754 mmHg 40%
    12:00 +40°C° 0 mm 2 mps 753 mmHg 34%
    13:00 +41°C° 0 mm 2 mps 752 mmHg 31%
    14:00 +43°C° 0 mm 3 mps 752 mmHg 29%
    15:00 +44°C° 0 mm 3 mps 751 mmHg 26%
    16:00 +43°C° 0 mm 3 mps 751 mmHg 29%
    17:00 +41°C° 0 mm 2 mps 751 mmHg 32%
    18:00 +39°C° 0 mm 2 mps 750 mmHg 35%
    19:00 +38°C° 0 mm 2 mps 751 mmHg 39%
    20:00 +36°C° 0 mm 3 mps 752 mmHg 44%
    21:00 +35°C° 0 mm 3 mps 752 mmHg 49%
    22:00 +34°C° 0 mm 2 mps 752 mmHg 51%
    23:00 +34°C° 0 mm 2 mps 752 mmHg 54%
    Show more